| time (UTC) | temp C | wind direction | speed KPH | gust KPH | rain 1hr cm | rain 24hr cm | rain mn cm | humidity % | barometer mb |
| 20260507040028 | 13 | 176 | 0.0 | 0.0 | 0.00 | 0.00 | 0.00 | 79 | 1018.1 |
| 20260507034554 | 14 | 176 | 0.0 | 0.0 | 0.00 | 0.00 | 0.00 | 78 | 1018.1 |
| 20260507033101 | 15 | 176 | 0.0 | 0.0 | 0.00 | 0.00 | 0.00 | 76 | 1018.0 |
| 20260507031530 | 15 | 176 | 0.0 | 0.0 | 0.00 | 0.00 | 0.00 | 74 | 1017.8 |
| 20260507030109 | 16 | 176 | 0.0 | 0.0 | 0.00 | 0.00 | 0.00 | 72 | 1017.6 |
| 20260507024556 | 16 | 176 | 0.0 | 1.6 | 0.00 | 0.00 | 0.00 | 71 | 1017.7 |
| 20260507023057 | 17 | 176 | 0.0 | 3.2 | 0.00 | 0.00 | 0.00 | 69 | 1017.3 |
| 20260507021556 | 17 | 176 | 0.0 | 3.2 | 0.00 | 0.00 | 0.00 | 67 | 1017.3 |
| 20260507020058 | 17 | 176 | 0.0 | 1.6 | 0.00 | 0.00 | 0.00 | 66 | 1017.3 |
| 20260507014602 | 17 | 176 | 0.0 | 3.2 | 0.00 | 0.00 | 0.00 | 65 | 1017.4 |
| 20260507013119 | 18 | 176 | 0.0 | 3.2 | 0.00 | 0.00 | 0.00 | 64 | 1017.2 |
| 20260507011607 | 18 | 176 | 0.0 | 4.8 | 0.00 | 0.00 | 0.00 | 63 | 1017.3 |
| 20260507010109 | 18 | 176 | 0.0 | 4.8 | 0.00 | 0.00 | 0.00 | 63 | 1017.3 |
| 20260507004559 | 19 | 179 | 1.6 | 8.0 | 0.00 | 0.00 | 0.00 | 62 | 1017.3 |
| 20260507003106 | 19 | 321 | 0.0 | 3.2 | 0.00 | 0.00 | 0.00 | 62 | 1017.3 |
| 20260507001608 | 20 | 323 | 1.6 | 8.0 | 0.00 | 0.00 | 0.00 | 62 | 1017.4 |
| 20260507000313 | 20 | 189 | 0.0 | 4.8 | 0.00 | 0.00 | 0.00 | 61 | 1017.3 |
| 20260506234617 | 20 | 188 | 1.6 | 6.4 | 0.00 | 0.00 | 0.00 | 61 | 1017.3 |
| 20260506233120 | 20 | 190 | 1.6 | 6.4 | 0.00 | 0.00 | 0.00 | 60 | 1017.4 |
| 20260506231620 | 21 | 184 | 1.6 | 6.4 | 0.00 | 0.00 | 0.00 | 60 | 1017.4 |
| 20260506230103 | 21 | 159 | 3.2 | 9.7 | 0.00 | 0.00 | 0.00 | 60 | 1017.7 |
| 20260506224553 | 21 | 165 | 1.6 | 9.7 | 0.00 | 0.00 | 0.00 | 59 | 1017.7 |
| 20260506223055 | 22 | 159 | 3.2 | 12.9 | 0.00 | 0.00 | 0.00 | 57 | 1018.1 |
| 20260506221557 | 22 | 157 | 3.2 | 8.0 | 0.00 | 0.00 | 0.00 | 56 | 1018.4 |
| 20260506220104 | 22 | 301 | 0.0 | 9.7 | 0.00 | 0.00 | 0.00 | 55 | 1018.4 |
| 20260506214602 | 23 | 284 | 1.6 | 6.4 | 0.00 | 0.00 | 0.00 | 54 | 1018.6 |
| 20260506213114 | 23 | 192 | 1.6 | 6.4 | 0.00 | 0.00 | 0.00 | 52 | 1018.7 |
| 20260506211609 | 23 | 185 | 1.6 | 6.4 | 0.00 | 0.00 | 0.00 | 51 | 1018.8 |
| 20260506210052 | 24 | 160 | 1.6 | 8.0 | 0.00 | 0.00 | 0.00 | 52 | 1018.8 |
| 20260506204556 | 24 | 254 | 1.6 | 6.4 | 0.00 | 0.00 | 0.00 | 51 | 1018.8 |
| 20260506203400 | 25 | 260 | 0.0 | 9.7 | 0.00 | 0.00 | 0.00 | 50 | 1018.9 |
| 20260506202032 | 25 | 224 | 1.6 | 6.4 | 0.00 | 0.00 | 0.00 | 48 | 1019.3 |
| 20260506200106 | 25 | 231 | 1.6 | 6.4 | 0.00 | 0.00 | 0.00 | 48 | 1019.1 |
| 20260506194902 | 25 | 227 | 1.6 | 4.8 | 0.00 | 0.00 | 0.00 | 47 | 1019.3 |
| 20260506193058 | 26 | 233 | 0.0 | 6.4 | 0.00 | 0.00 | 0.00 | 47 | 1019.4 |
| 20260506191555 | 25 | 217 | 0.0 | 6.4 | 0.00 | 0.00 | 0.00 | 47 | 1019.4 |
| 20260506190109 | 25 | 223 | 0.0 | 4.8 | 0.00 | 0.00 | 0.00 | 45 | 1019.5 |
| 20260506184559 | 24 | 223 | 0.0 | 8.0 | 0.00 | 0.00 | 0.00 | 46 | 1019.5 |
| 20260506183109 | 23 | 206 | 1.6 | 6.4 | 0.00 | 0.00 | 0.00 | 48 | 1019.5 |
| 20260506181553 | 23 | 190 | 0.0 | 8.0 | 0.00 | 0.00 | 0.00 | 52 | 1019.6 |
| 20260506180059 | 22 | 204 | 1.6 | 4.8 | 0.00 | 0.00 | 0.00 | 51 | 1019.8 |
| 20260506174557 | 21 | 196 | 0.0 | 4.8 | 0.00 | 0.00 | 0.00 | 53 | 1019.7 |
| 20260506173108 | 20 | 186 | 0.0 | 4.8 | 0.00 | 0.00 | 0.00 | 59 | 1019.7 |
| 20260506171832 | 18 | 186 | 0.0 | 4.8 | 0.00 | 0.00 | 0.00 | 65 | 1019.6 |
| 20260506170039 | 16 | 182 | 0.0 | 3.2 | 0.00 | 0.00 | 0.00 | 73 | 1019.5 |
| 20260506164554 | 15 | 178 | 0.0 | 4.8 | 0.00 | 0.00 | 0.00 | 79 | 1019.4 |
| 20260506163047 | 14 | 177 | 0.0 | 4.8 | 0.00 | 0.00 | 0.00 | 86 | 1019.5 |
| 20260506161553 | 13 | 181 | 0.0 | 3.2 | 0.00 | 0.00 | 0.00 | 90 | 1019.7 |
| 20260506160104 | 13 | 181 | 0.0 | 1.6 | 0.00 | 0.00 | 0.00 | 92 | 1019.6 |
| 20260506154554 | 12 | 181 | 0.0 | 3.2 | 0.00 | 0.00 | 0.00 | 92 | 1019.3 |
| 20260506153042 | 12 | 181 | 0.0 | 1.6 | 0.00 | 0.00 | 0.00 | 93 | 1019.3 |
| 20260506151607 | 12 | 181 | 0.0 | 1.6 | 0.00 | 0.00 | 0.00 | 93 | 1019.3 |
| 20260506150046 | 11 | 181 | 0.0 | 1.6 | 0.00 | 0.00 | 0.00 | 93 | 1019.3 |
| 20260506144548 | 9 | 181 | 0.0 | 0.0 | 0.00 | 0.00 | 0.00 | 93 | 1019.4 |
| 20260506143053 | 7 | 181 | 0.0 | 0.0 | 0.00 | 0.00 | 0.00 | 93 | 1019.3 |
| 20260506141608 | 6 | 181 | 0.0 | 1.6 | 0.00 | 0.00 | 0.00 | 91 | 1019.4 |
| 20260506140053 | 5 | 181 | 0.0 | 1.6 | 0.00 | 0.00 | 0.00 | 91 | 1019.0 |
| 20260506134555 | 5 | 181 | 0.0 | 0.0 | 0.00 | 0.00 | 0.00 | 90 | 1018.8 |
| 20260506133059 | 5 | 181 | 0.0 | 0.0 | 0.00 | 0.00 | 0.00 | 90 | 1019.0 |
| 20260506131601 | 5 | 181 | 0.0 | 0.0 | 0.00 | 0.00 | 0.00 | 89 | 1018.7 |
| 20260506130115 | 5 | 181 | 0.0 | 0.0 | 0.00 | 0.00 | 0.00 | 89 | 1018.6 |
| 20260506124605 | 5 | 181 | 0.0 | 0.0 | 0.00 | 0.00 | 0.00 | 89 | 1018.6 |
| 20260506123109 | 5 | 181 | 0.0 | 0.0 | 0.00 | 0.00 | 0.00 | 89 | 1018.3 |
| 20260506121614 | 5 | 181 | 0.0 | 0.0 | 0.00 | 0.00 | 0.00 | 89 | 1018.3 |
| 20260506120118 | 6 | 181 | 0.0 | 0.0 | 0.00 | 0.00 | 0.00 | 89 | 1018.3 |
| 20260506114559 | 6 | 181 | 0.0 | 0.0 | 0.00 | 0.00 | 0.00 | 89 | 1018.4 |
| 20260506113106 | 6 | 181 | 0.0 | 0.0 | 0.00 | 0.00 | 0.00 | 89 | 1018.3 |
| 20260506111559 | 6 | 181 | 0.0 | 0.0 | 0.00 | 0.00 | 0.00 | 89 | 1018.3 |
| 20260506110056 | 6 | 181 | 0.0 | 0.0 | 0.00 | 0.00 | 0.00 | 89 | 1018.3 |
| 20260506104602 | 6 | 181 | 0.0 | 0.0 | 0.00 | 0.00 | 0.00 | 89 | 1018.3 |
| 20260506103053 | 6 | 181 | 0.0 | 0.0 | 0.00 | 0.00 | 0.00 | 89 | 1018.3 |
| 20260506101611 | 6 | 181 | 0.0 | 0.0 | 0.00 | 0.00 | 0.00 | 88 | 1018.2 |
| 20260506100109 | 6 | 181 | 0.0 | 0.0 | 0.00 | 0.00 | 0.00 | 88 | 1018.4 |
| 20260506094556 | 6 | 181 | 0.0 | 0.0 | 0.00 | 0.00 | 0.00 | 88 | 1018.5 |
| 20260506093053 | 6 | 181 | 0.0 | 0.0 | 0.00 | 0.00 | 0.00 | 88 | 1018.4 |
| 20260506091557 | 7 | 181 | 0.0 | 0.0 | 0.00 | 0.00 | 0.00 | 88 | 1018.5 |
| 20260506090319 | 7 | 181 | 0.0 | 0.0 | 0.00 | 0.00 | 0.00 | 88 | 1018.6 |
| 20260506084606 | 7 | 181 | 0.0 | 0.0 | 0.00 | 0.00 | 0.00 | 88 | 1018.6 |
| 20260506083110 | 7 | 181 | 0.0 | 0.0 | 0.00 | 0.00 | 0.00 | 88 | 1018.7 |
| 20260506081827 | 7 | 181 | 0.0 | 0.0 | 0.00 | 0.00 | 0.00 | 88 | 1018.8 |
| 20260506073102 | 7 | 181 | 0.0 | 1.6 | 0.00 | 0.00 | 0.00 | 88 | 1018.8 |
| 20260506071558 | 7 | 181 | 0.0 | 1.6 | 0.00 | 0.00 | 0.00 | 87 | 1018.7 |
| 20260506070114 | 7 | 181 | 0.0 | 1.6 | 0.00 | 0.00 | 0.00 | 86 | 1018.6 |
| 20260506061608 | 8 | 181 | 0.0 | 0.0 | 0.00 | 0.00 | 0.00 | 85 | 1018.2 |
| 20260506060108 | 8 | 181 | 0.0 | 0.0 | 0.00 | 0.00 | 0.00 | 85 | 1018.3 |
| 20260506050115 | 9 | 182 | 0.0 | 0.0 | 0.00 | 0.00 | 0.00 | 83 | 1017.4 |
| 20260506044611 | 10 | 182 | 0.0 | 0.0 | 0.00 | 0.00 | 0.00 | 82 | 1017.5 |
| 20260506043121 | 10 | 182 | 0.0 | 0.0 | 0.00 | 0.00 | 0.00 | 82 | 1017.3 |
| 20260506041616 | 11 | 182 | 0.0 | 0.0 | 0.00 | 0.00 | 0.00 | 81 | 1017.1 |